KF5WOE-13 Weather Reports


Display with metric or nautical units.
time (UTC)temp
F
wind
direction
speed
MPH
gust
MPH
rain 1hr
in
rain 24hr
in
rain mn
in
humidity
%
barometer
mb
20260505051320 140 119 4.0 9.0 0.00 0.00 0.00 1004.9
20260505050818 140 176 3.0 8.0 0.00 0.00 0.00 1005.1
20260505050317 140 175 2.0 3.0 0.00 0.00 0.00 1005.4
20260505041746 140 126 4.0 7.0 0.00 0.00 0.00 1005.2
20260505041243 140 154 7.0 10.0 0.00 0.00 0.00 1005.4
20260505040741 140 161 8.0 9.0 0.00 0.00 0.00 1005.5
20260505040238 140 130 9.0 14.0 0.00 0.00 0.00 1005.5
20260505035735 140 173 1.0 3.0 0.00 0.00 0.00 1005.2
20260505035231 140 138 9.0 11.0 0.00 0.00 0.00 1005.6
20260505034728 140 155 8.0 10.0 0.00 0.00 0.00 1005.6
20260505034225 140 188 3.0 7.0 0.00 0.00 0.00 1005.2
20260505033721 140 160 3.0 7.0 0.00 0.00 0.00 1005.2
20260505033219 140 181 4.0 8.0 0.00 0.00 0.00 1005.2
20260505032717 140 148 7.0 9.0 0.00 0.00 0.00 1005.2
20260505032212 140 162 1.0 5.0 0.00 0.00 0.00 1005.3
20260505031710 140 169 8.0 11.0 0.00 0.00 0.00 1005.3
20260505031206 140 153 0.0 3.0 0.00 0.00 0.00 1005.3
20260505030703 140 146 8.0 9.0 0.00 0.00 0.00 1005.3
20260505030159 140 158 6.0 8.0 0.00 0.00 0.00 1005.2
20260505025655 140 141 5.0 7.0 0.00 0.00 0.00 1005.0
20260505025154 140 143 1.0 3.0 0.00 0.00 0.00 1005.1
20260505024651 140 144 4.0 7.0 0.00 0.00 0.00 1005.2
20260505024148 140 92 3.0 5.0 0.00 0.00 0.00 1005.0
20260505023646 140 124 4.0 8.0 0.00 0.00 0.00 1005.1
20260505023143 140 157 0.0 2.0 0.00 0.00 0.00 1005.1
20260505022640 140 168 0.0 0.0 0.00 0.00 0.00 1005.1
20260505022137 140 153 0.0 0.0 0.00 0.00 0.00 1005.0
20260505021634 140 189 0.0 0.0 0.00 0.00 0.00 1005.1
20260505021130 140 140 0.0 0.0 0.00 0.00 0.00 1005.1
20260505020626 140 165 1.0 2.0 0.00 0.00 0.00 1005.0
20260505020122 140 129 0.0 0.0 0.00 0.00 0.00 1004.8
20260505015619 140 143 8.0 10.0 0.00 0.00 0.00 1005.0
20260505015110 140 163 0.0 1.0 0.00 0.00 0.00 1005.1
20260505014607 140 179 1.0 2.0 0.00 0.00 0.00 1004.9
20260505014104 140 157 2.0 5.0 0.00 0.00 0.00 1004.9
20260505013601 140 145 1.0 5.0 0.00 0.00 0.00 1005.0
20260505013059 140 169 1.0 3.0 0.00 0.00 0.00 1004.8
20260505012556 140 154 1.0 3.0 0.00 0.00 0.00 1005.0
20260505012053 140 168 0.0 1.0 0.00 0.00 0.00 1004.9
20260505011549 140 184 8.0 9.0 0.00 0.00 0.00 1004.8
20260505011047 140 190 3.0 6.0 0.00 0.00 0.00 1004.9
20260505010542 140 176 2.0 5.0 0.00 0.00 0.00 1004.8
20260505010039 140 145 0.0 0.0 0.00 0.00 0.00 1004.9
20260505005535 140 186 6.0 7.0 0.00 0.00 0.00 1004.7
20260505005033 140 177 8.0 9.0 0.00 0.00 0.00 1004.8
20260505004529 140 190 3.0 7.0 0.00 0.00 0.00 1004.8
20260505004026 140 176 11.0 13.0 0.00 0.00 0.00 1004.9
20260505003523 140 172 0.0 1.0 0.00 0.00 0.00 1005.0
20260505003020 140 158 3.0 8.0 0.00 0.00 0.00 1005.1
20260505002521 140 214 1.0 2.0 0.00 0.00 0.00 1005.0
20260505002015 140 175 2.0 5.0 0.00 0.00 0.00 1005.3
20260505001512 140 158 2.0 6.0 0.00 0.00 0.00 1005.1
20260505001009 140 189 5.0 7.0 0.00 0.00 0.00 1005.2
20260505000506 140 161 4.0 7.0 0.00 0.00 0.00 1005.2
20260505000004 140 225 5.0 9.0 0.00 0.00 0.00 1005.2
20260504235500 140 158 12.0 13.0 0.00 0.00 0.00 1005.2
20260504234956 140 194 7.0 9.0 0.00 0.00 0.00 1005.1
20260504234454 140 116 9.0 10.0 0.00 0.00 0.00 1005.4
20260504233950 140 173 2.0 6.0 0.00 0.00 0.00 1005.2
20260504233446 140 130 8.0 11.0 0.00 0.00 0.00 1005.3
20260504232943 140 183 12.0 14.0 0.00 0.00 0.00 1005.6
20260504232440 140 176 13.0 18.0 0.00 0.00 0.00 1005.6
20260504231938 140 180 5.0 7.0 0.00 0.00 0.00 1005.5
20260504231433 140 170 7.0 9.0 0.00 0.00 0.00 1005.7
20260504230930 140 193 10.0 13.0 0.00 0.00 0.00 1005.6
20260504230427 140 171 15.0 20.0 0.00 0.00 0.00 1005.4
20260504225926 140 163 4.0 9.0 0.00 0.00 0.00 1005.4
20260504225422 140 186 9.0 11.0 0.00 0.00 0.00 1005.5
20260504224920 140 170 6.0 9.0 0.00 0.00 0.00 1005.6
20260504224416 140 155 10.0 14.0 0.00 0.00 0.00 1005.5
20260504223913 140 179 7.0 11.0 0.00 0.00 0.00 1005.6
20260504223408 140 145 4.0 10.0 0.00 0.00 0.00 1005.5
20260504222905 140 173 5.0 7.0 0.00 0.00 0.00 1005.7
20260504222402 140 170 13.0 17.0 0.00 0.00 0.00 1005.6
20260504221901 140 164 12.0 15.0 0.00 0.00 0.00 1005.5
20260504221356 140 130 7.0 11.0 0.00 0.00 0.00 1005.6
20260504220854 140 179 9.0 10.0 0.00 0.00 0.00 1005.6
20260504220350 140 195 3.0 3.0 0.00 0.00 0.00 1005.7
20260504215848 140 193 8.0 11.0 0.00 0.00 0.00 1005.6
20260504215344 140 195 11.0 16.0 0.00 0.00 0.00 1005.9
20260504214840 140 148 10.0 14.0 0.00 0.00 0.00 1005.9
20260504214337 140 130 14.0 17.0 0.00 0.00 0.00 1006.0
20260504213834 140 165 9.0 14.0 0.00 0.00 0.00 1006.2
20260504213329 140 174 14.0 16.0 0.00 0.00 0.00 1006.0
20260504212827 140 166 16.0 20.0 0.00 0.00 0.00 1006.2
20260504212323 140 176 8.0 10.0 0.00 0.00 0.00 1006.4
20260504211821 140 201 12.0 16.0 0.00 0.00 0.00 1006.6
20260504211317 140 155 9.0 13.0 0.00 0.00 0.00 1006.4
20260504210815 140 159 8.0 10.0 0.00 0.00 0.00 1006.5
20260504210312 140 156 9.0 10.0 0.00 0.00 0.00 1006.4
20260504205809 140 186 8.0 11.0 0.00 0.00 0.00 1006.7
20260504205306 140 147 8.0 11.0 0.00 0.00 0.00 1007.0
20260504204804 140 198 9.0 11.0 0.00 0.00 0.00 1006.8
20260504204302 140 182 14.0 17.0 0.00 0.00 0.00 1007.0
20260504203802 140 181 7.0 11.0 0.00 0.00 0.00 1007.0
20260504203258 140 156 9.0 11.0 0.00 0.00 0.00 1007.4
20260504202753 140 153 7.0 10.0 0.00 0.00 0.00 1007.3
20260504202250 140 160 15.0 18.0 0.00 0.00 0.00 1007.9
20260504201747 140 171 12.0 14.0 0.00 0.00 0.00 1007.7
20260504201244 140 181 10.0 14.0 0.00 0.00 0.00 1007.8
20260504200742 140 153 8.0 10.0 0.00 0.00 0.00 1007.9
20260504200238 140 138 5.0 6.0 0.00 0.00 0.00 1007.8
20260504195735 140 173 8.0 9.0 0.00 0.00 0.00 1008.1
20260504195230 140 188 8.0 10.0 0.00 0.00 0.00 1008.1
20260504194728 140 136 11.0 17.0 0.00 0.00 0.00 1008.2
20260504194224 140 177 10.0 13.0 0.00 0.00 0.00 1008.3
20260504193720 140 195 13.0 15.0 0.00 0.00 0.00 1008.4
20260504193218 140 184 8.0 10.0 0.00 0.00 0.00 1008.3
20260504192716 140 164 11.0 16.0 0.00 0.00 0.00 1008.5
20260504192214 140 166 10.0 13.0 0.00 0.00 0.00 1008.8
20260504191712 140 175 10.0 11.0 0.00 0.00 0.00 1008.8
20260504191209 140 199 13.0 16.0 0.00 0.00 0.00 1008.9
20260504190704 140 120 10.0 14.0 0.00 0.00 0.00 1008.9
20260504190201 140 209 7.0 10.0 0.00 0.00 0.00 1009.1
20260504185657 140 180 11.0 13.0 0.00 0.00 0.00 1009.0
20260504185153 140 169 11.0 15.0 0.00 0.00 0.00 1009.2
20260504184650 140 153 8.0 9.0 0.00 0.00 0.00 1009.1
20260504184145 140 185 13.0 15.0 0.00 0.00 0.00 1009.2
20260504183642 140 177 7.0 9.0 0.00 0.00 0.00 1009.4
20260504183139 140 160 9.0 13.0 0.00 0.00 0.00 1009.4
20260504182637 140 175 5.0 9.0 0.00 0.00 0.00 1009.3
20260504182134 140 201 9.0 11.0 0.00 0.00 0.00 1009.4
20260504181632 140 227 9.0 11.0 0.00 0.00 0.00 1009.7
20260504181129 140 198 11.0 14.0 0.00 0.00 0.00 1009.7
20260504180629 140 117 8.0 10.0 0.00 0.00 0.00 1009.7
20260504180127 140 240 10.0 13.0 0.00 0.00 0.00 1009.8
20260504175623 140 176 11.0 13.0 0.00 0.00 0.00 1009.9
20260504175120 140 185 11.0 15.0 0.00 0.00 0.00 1010.2
20260504174619 140 190 9.0 10.0 0.00 0.00 0.00 1010.2
20260504174114 140 180 13.0 17.0 0.00 0.00 0.00 1010.3
20260504173612 140 206 10.0 13.0 0.00 0.00 0.00 1010.3
20260504173109 140 158 10.0 13.0 0.00 0.00 0.00 1010.3
20260504172605 140 181 18.0 22.0 0.00 0.00 0.00 1010.3
20260504172102 140 177 10.0 11.0 0.00 0.00 0.00 1010.5
20260504171558 140 198 6.0 9.0 0.00 0.00 0.00 1010.4
20260504171056 140 120 3.0 3.0 0.00 0.00 0.00 1010.8
20260504170551 140 181 9.0 16.0 0.00 0.00 0.00 1010.5
20260504150930 140 187 13.0 16.0 0.00 0.00 0.00 1012.3
20260504150426 140 194 7.0 9.0 0.00 0.00 0.00 1012.3
20260504140847 140 187 13.0 16.0 0.00 0.00 0.00 1012.8
20260504140343 140 168 9.0 10.0 0.00 0.00 0.00 1012.6
20260504130812 140 169 8.0 11.0 0.00 0.00 0.00 1012.9
20260504130308 140 136 5.0 6.0 0.00 0.00 0.00 1012.8
20260504120232 140 156 3.0 3.0 0.00 0.00 0.00 1012.5
20260504110659 140 160 5.0 6.0 0.00 0.00 0.00 1012.4
20260504110155 140 162 4.0 5.0 0.00 0.00 0.00 1012.5
20260504100119 140 167 7.0 8.0 0.00 0.00 0.00 1012.9
20260504081512 140 147 0.0 0.0 0.00 0.00 0.00 1013.6
20260504081008 140 165 1.0 1.0 0.00 0.00 0.00 1013.6
20260504080504 140 161 2.0 2.0 0.00 0.00 0.00 1013.7